Location: ??????
(55.6500°N, 37.8000°E)
Time: 12:57:02
(UTC+00:00)

Cosmos 921 Rocket - Pass Details

Date: 14 April 2024
Orbit: 567 x 626 km, 75.8° (Epoch: 17 May)

Event Time Altitude Azimuth Distance (km) Brightness Sun altitude
Rises 01:13:32 0° 181° (S) 2,793 6.1 -10.0°
Reaches altitude 10° 01:15:48 10° 174° (S) 1,908 5.3 -9.7°
Maximum altitude 01:19:46 40° 105° (ESE) 881 4.3 -9.3°
Drops below altitude 10° 01:23:51 10° 36° (NE) 1,957 6.9 -8.8°
Sets 01:26:12 0° 29° (NNE) 2,876 7.6 -8.5°
